• Join FlightAware (Why Join?)
  • Login
  • US Flag 
12:32AM EST


 

Airport Tracker/Info


-or-


 

Live Flight TrackerFlight Track Log ✈ N7192Y ✈ 01-Sep-2013 ✈ 2G9 - KDAY

Flight Track Log - Related Links

Times and Time Zones

All times are in EDT time to prevent confusion due to time zone crossing. See the N7192Y flight status page for this flight to view local times or setup timezone preferences in your user account.

Time Position Orientation Groundspeed Altitude Reporting Facility
EDT Latitude Longitude Course Direction KTS MPH feet Rate Location/Type
03:19PM 40.0264 -79.1108 265° West 117 135 3,800  Level Cleveland Center
03:20PM 40.0269 -79.1542 271° West 114 131 4,500 660 Climbing Cleveland Center
03:21PM 40.0275 -79.1922 271° West 107 123 5,200 600 Climbing Cleveland Center
03:22PM 40.0278 -79.2303 271° West 107 123 5,800 420 Climbing Cleveland Center
03:23PM 40.0264 -79.2708 267° West 113 130 6,100 120 Climbing Cleveland Center
03:24PM 40.0269 -79.3197 271° West 139 160 6,100  Level Cleveland Center
03:25PM 40.0275 -79.3739 271° West 142 163 6,100  Level Cleveland Center
03:26PM 40.0258 -79.4256 268° West 144 166 6,100  Level Cleveland Center
03:27PM 40.0264 -79.4769 271° West 143 165 6,100  Level Cleveland Center
03:29PM 40.0328 -79.5592 276° West  Level FlightAware Approximate
03:36PM 40.0167 -79.9323 270° West  Level FlightAware Approximate
03:37PM 40.0167 -79.9857 270° West  Level FlightAware Approximate
03:38PM 40.0168 -80.0390 270° West  Level FlightAware Approximate
03:39PM 40.0168 -80.0924 270° West  Level FlightAware Approximate
03:40PM 40.0169 -80.1458 270° West  Level FlightAware Approximate
03:41PM 40.0169 -80.1991 270° West  Level FlightAware Approximate
03:41PM 40.0228 -80.1900 270° West 149 171 6,100  Level Cleveland Center
03:42PM 40.0169 -80.2525 270° West  Level FlightAware Approximate
03:42PM 40.0250 -80.2414 273° West 151 174 6,100  Level Cleveland Center
03:43PM 40.0231 -80.2903 267° West 153 176 6,100  Level Cleveland Center
03:44PM 40.0168 -80.3592 270° West  Level FlightAware Approximate
03:44PM 40.0211 -80.3392 267° West 147 169 6,100  Level Cleveland Center
03:45PM 40.0167 -80.4126 270° West  Level FlightAware Approximate
03:45PM 40.0192 -80.3906 267° West 142 163 6,100  Level Cleveland Center
03:46PM 40.0167 -80.4659 270° West  Level FlightAware Approximate
03:46PM 40.0211 -80.4422 273° West 142 163 6,100  Level Cleveland Center
03:47PM 40.0192 -80.4883 267° West 142 163 6,100  Level Cleveland Center
03:48PM 40.0172 -80.5369 267° West 142 163 6,100  Level Cleveland Center
03:49PM 40.0172 -80.5858 270° West 142 163 6,100  Level Cleveland Center
03:50PM 40.0150 -80.6347 267° West 142 163 6,100  Level Cleveland Center
03:51PM 40.0150 -80.6861 270° West 142 163 6,100  Level Cleveland Center
03:52PM 40.0150 -80.7347 270° West 142 163 6,100  Level Cleveland Center
03:53PM 40.0128 -80.7864 267° West 142 163 6,100  Level Cleveland Center
03:54PM 40.0128 -80.8350 270° West 142 163 6,100  Level Cleveland Center
03:55PM 40.0125 -80.8839 270° West 142 163 6,100  Level Cleveland Center
03:56PM 40.0103 -80.9356 267° West 142 163 6,100  Level Cleveland Center
03:57PM 40.0103 -80.9869 270° West 142 163 6,100  Level Cleveland Center
03:58PM 40.0100 -81.0331 270° West 142 163 6,100 -60 Level Cleveland Center
03:59PM 40.0056 -81.0844 264° West 142 163 6,000 -60 Descending Cleveland Center
04:00PM 40.0075 -81.1361 273° West 142 163 6,000  Level Cleveland Center
04:01PM 40.0050 -81.1847 266° West 142 163 6,000  Level Cleveland Center
04:02PM 40.0047 -81.2364 270° West 142 163 6,000  Level Cleveland Center
04:03PM 40.0025 -81.2850 267° West 142 163 6,000  Level Cleveland Center
04:04PM 39.9983 -81.3622 266° West 140 161 6,000  Level Indianapolis Center
04:05PM 39.9969 -81.4158 268° West 146 168 6,000  Level Indianapolis Center
04:06PM 39.9961 -81.4675 269° West 144 166 6,000  Level Indianapolis Center
04:07PM 39.9947 -81.5194 268° West 143 165 6,000  Level Indianapolis Center
04:08PM 39.9931 -81.5700 268° West 139 160 6,100  Climbing Indianapolis Center
04:09PM 39.9928 -81.6222 270° West 141 162 6,100  Level Indianapolis Center
04:10PM 39.9906 -81.6736 267° West 141 162 6,100  Level Indianapolis Center
04:11PM 39.9894 -81.7258 268° West 141 162 6,100  Level Indianapolis Center
04:12PM 39.9886 -81.7792 269° West 141 162 6,100  Level Indianapolis Center
04:13PM 39.9867 -81.8300 267° West 140 161 6,100  Level Indianapolis Center
04:14PM 39.9858 -81.8814 269° West 140 161 6,100  Level Indianapolis Center
04:15PM 39.9847 -81.9314 268° West 140 161 6,100  Level Indianapolis Center
04:16PM 39.9831 -81.9817 268° West 138 159 6,100  Level Indianapolis Center
04:17PM 39.9814 -82.0331 268° West 142 163 6,100  Level Indianapolis Center
04:18PM 39.9800 -82.0933 268° West 140 161 6,100  Level Indianapolis Center
04:19PM 39.9797 -82.1203 269° West 140 161 6,100  Level Indianapolis Center
04:19PM 39.9778 -82.1442 264° West 140 161 6,100  Level Indianapolis Center
04:20PM 39.9761 -82.1950 268° West 143 165 6,100  Level Indianapolis Center
04:21PM 39.9758 -82.2450 270° West 139 160 6,100  Level Indianapolis Center
04:22PM 39.9744 -82.2750 267° West 138 159 6,100  Level Indianapolis Center
04:23PM 39.9736 -82.3294 269° West 137 158 6,100  Level Indianapolis Center
04:24PM 39.9722 -82.3703 267° West 136 157 6,100  Level Indianapolis Center
04:25PM 39.9706 -82.3931 265° West 138 159 6,100  Level Indianapolis Center
04:26PM 39.9692 -82.4428 268° West 138 159 6,100  Level Indianapolis Center
04:27PM 39.9694 -82.4917 270° West 136 157 6,100  Level Indianapolis Center
04:28PM 39.9739 -82.5414 277° West 138 159 6,100  Level Indianapolis Center
04:28PM 39.9725 -82.5750 267° West 138 159 6,100  Level Indianapolis Center
04:29PM 39.9692 -82.6317 266° West 137 158 6,100  Level Indianapolis Center
04:30PM 39.9669 -82.6806 267° West 134 154 6,100  Level Indianapolis Center
04:31PM 39.9644 -82.7292 266° West 133 153 6,100  Level Indianapolis Center
04:32PM 39.9606 -82.7722 263° West 134 154 6,100  Level Indianapolis Center
04:33PM 39.9603 -82.7947 269° West 135 155 6,100  Level Indianapolis Center
04:34PM 39.9600 -82.8442 270° West 136 157 6,100  Level Indianapolis Center
04:35PM 39.9603 -82.8936 270° West 136 157 6,100  Level Indianapolis Center
04:36PM 39.9586 -82.9419 267° West 135 155 6,100  Level Indianapolis Center
04:37PM 39.9550 -82.9911 265° West 136 157 6,100  Level Indianapolis Center
04:38PM 39.9533 -83.0397 267° West 134 154 6,100  Level Indianapolis Center
04:39PM 39.9503 -83.0967 266° West 133 153 6,100  Level Indianapolis Center
04:39PM 39.9483 -83.1197 264° West 131 151 6,100  Level Indianapolis Center
04:40PM 39.9483 -83.1633 270° West 131 151 6,100  Level Indianapolis Center
04:41PM 39.9461 -83.1917 264° West 133 153 6,100  Level Indianapolis Center
04:42PM 39.9444 -83.2392 267° West 132 152 6,100  Level Indianapolis Center
04:43PM 39.9425 -83.2878 267° West 133 153 6,100  Level Indianapolis Center
04:43PM 39.9419 -83.3153 268° West 132 152 6,100  Level Indianapolis Center
04:44PM 39.9406 -83.3356 265° West 133 153 6,100  Level Indianapolis Center
04:45PM 39.9386 -83.3825 267° West 132 152 6,100  Level Indianapolis Center
04:46PM 39.9375 -83.4303 268° West 133 153 6,100  Level Indianapolis Center
04:47PM 39.9397 -83.4864 273° West 132 152 6,100  Level Indianapolis Center
04:48PM 39.9411 -83.5336 272° West 132 152 6,100 -60 Level Indianapolis Center
04:49PM 39.9428 -83.5811 273° West 132 152 6,000 -420 Descending Indianapolis Center
04:50PM 39.9406 -83.6333 267° West 139 160 5,300 -660 Descending Indianapolis Center
04:51PM 39.9422 -83.6917 272° West 151 174 4,700 -660 Descending Indianapolis Center
04:52PM 39.9431 -83.7500 271° West 158 182 4,000 -660 Descending Indianapolis Center
04:53PM 39.9433 -83.8092 270° West 161 185 3,400 -480 Descending Indianapolis Center
04:54PM 39.9444 -83.8778 271° West 160 184 3,100 -180 Descending Indianapolis Center
04:55PM 39.9447 -83.9308 270° West 154 177 3,100  Level Indianapolis Center
04:56PM 39.9464 -83.9822 272° West 149 171 3,100  Level Indianapolis Center
04:57PM 39.9461 -84.0300 270° West 141 162 3,100 -60 Level Indianapolis Center
04:58PM 39.9469 -84.0758 271° West 133 153 3,000 -180 Descending Indianapolis Center
04:59PM 39.9469 -84.1164 270° West 123 142 2,800 -480 Descending Indianapolis Center
05:00PM 39.9308 -84.1458 234° Southwest 107 123 2,100 -420 Descending Indianapolis Center
05:01PM 39.9144 -84.1728 232° Southwest 105 121 2,000 -480 Descending Indianapolis Center
05:02PM 39.9072 -84.1917 244° Southwest 77 89 1,400 -1,080 Descending Indianapolis Center
05:04PM 39.9000 -84.2167 267° West  Level FlightAware Approximate
05:11PM 39.9022 -84.2194 267° West  Level Estimated